Content
SEND FEEDBACK

Daily
Averages
Monthly
Summary
United States of America

ANN ARBOR, MICHIGAN


Home > North America > United States > Michigan
Elevation: 231 meters     Latitude: 42 17N     Longitude: 083 43W

WEATHER
 
SELECT A DAY
Number of Records: 204,513;   Date Range: 1/1/95 - 9/21/14
 
SHARE

PRINT THIS DATA

[ ← Previous Day ]
WEATHER ALMANAC - 23 JULY, 2013
[ Next Day → ]
[ °F ]   °C
Weather ElementAverageHighLow
Temperature20.9 °C30 °C (2:42 pm)15 °C (11:53 pm)
Dewpoint17.9 °C21.7 °C (11:53 am)10 °C (11:53 pm)
Humidity83.8 %100 % (2:09 am)58 % (1:53 pm)
Barometer1007.5 hPa1011.9 hPa (11:53 pm)1005.1 hPa (1:53 pm)
Wind Speed10.8 km/h27.8 km/h (2:42 pm)
Wind Gust37 km/h (1:53 pm)
Weather ElementAverage
Visibility10.1 km
Wind DirectionSSE (165 °)

Weather ElementTotal
Precipitation1.78 mm
Cooling Degree Days4.2 (Base 18.3)
Growing Degree Days12.5 (Base 10)
Averaged from 44 records on 23 July, 2013
WEATHER CONDITIONS BREAKOUT
WIND DIRECTION BREAKOUT
WEATHER BY HOUR - 23 JULY, 2013
[ °F ]   °C
Local TimeTemperatureDewpointHumidityBarometerVisibilityWind DirectionWind SpeedGust SpeedPrecipitationEventsConditions
1:33 AM18 °C17 °C94 %1009.1 hPa2.9 kmCalmClear
1:42 AM18 °C17 °C94 %1009.1 hPa4.8 kmCalmClear
1:53 AM17.2 °C16.7 °C97 %1008.8 hPa4 kmCalmClear
2:03 AM18 °C17 °C94 %1008.8 hPa6.4 kmCalmClear
2:09 AM17 °C17 °C100 %1008.8 hPa1.6 kmCalmClear
2:18 AM17 °C17 °C100 %1008.8 hPa0.3 kmCalmFogFog
2:30 AM17 °C17 °C100 %1008.8 hPa3.2 kmWSW (250°)7.4 km/hClear
2:37 AM18 °C17 °C94 %1008.5 hPa4.8 kmWSW (250°)7.4 km/hClear
2:50 AM18 °C17 °C94 %1008.5 hPa2.9 kmSW (230°)5.6 km/hClear
2:51 AM17.8 °C17.2 °C96 %1007.8 hPa2.9 kmSW (230°)5.6 km/hClear
3:10 AM17 °C17 °C100 %1008.1 hPa4.8 kmCalmClear
3:31 AM18 °C17 °C94 %1007.5 hPa3.2 kmCalmClear
3:48 AM18 °C17 °C94 %1007.5 hPa4.8 kmSW (230°)7.4 km/hClear
3:53 AM18.3 °C17.8 °C97 %1006.8 hPa6.4 kmSW (220°)7.4 km/hClear
4:53 AM18.9 °C17.8 °C93 %1006.8 hPa6.4 kmSW (230°)7.4 km/h0.25 mmClear
5:53 AM18.9 °C17.8 °C93 %1006.4 hPa6.4 kmSSW (210°)7.4 km/hClear
6:36 AM19 °C18 °C94 %1006.8 hPa4 kmSSW (200°)7.4 km/hClear
6:53 AM18.9 °C18.3 °C96 %1006.8 hPa4 kmSW (220°)5.6 km/hClear
7:06 AM19 °C18 °C94 %1007.1 hPa4.8 kmCalmClear
7:53 AM20 °C18.9 °C93 %1006.8 hPa6.4 kmSW (230°)13 km/h0 mmMostly Cloudy
8:53 AM21.1 °C19.4 °C90 %1006.8 hPa6.4 kmCalm0.25 mmRainLight Rain
9:53 AM22.2 °C20.6 °C91 %1006.1 hPa9.7 kmVariable7.4 km/h0 mmMostly Cloudy
10:06 AM22 °C21 °C94 %1006.4 hPa9.7 kmVariable5.6 km/hMostly Cloudy
10:53 AM22.8 °C21.1 °C90 %1006.4 hPa12.9 kmSW (220°)9.3 km/hScattered Clouds
11:53 AM26.1 °C21.7 °C77 %1006.1 hPa16.1 kmWSW (240°)13 km/hClear
12:53 PM28.3 °C20.6 °C63 %1005.8 hPa16.1 kmWSW (240°)16.7 km/hPartly Cloudy
1:53 PM28.9 °C20 °C58 %1005.1 hPa16.1 kmWSW (240°)25.9 km/h37 km/hMostly Cloudy
2:42 PM30 °C21 °C58 %1005.4 hPa16.1 kmWest (280°)27.8 km/h35.2 km/hThunderstormScattered Clouds
2:53 PM27.8 °C19.4 °C60 %1005.1 hPa16.1 kmWest (280°)22.2 km/hThunderstormMostly Cloudy
3:09 PM24 °C19 °C73 %1006.1 hPa16.1 kmNNW (340°)16.7 km/h35.2 km/hThunderstormThunderstorm
3:53 PM23.9 °C20 °C79 %1006.1 hPa16.1 kmNorth (10°)18.5 km/h33.3 km/h1.27 mmThunderstormMostly Cloudy
4:13 PM24 °C20 °C78 %1006.8 hPa16.1 kmNE (40°)14.8 km/h31.5 km/hOvercast
4:30 PM23 °C21 °C88 %1006.8 hPa16.1 kmNE (40°)16.7 km/h35.2 km/h0 mmRain-ThunderstormLight Rain
4:49 PM23 °C19 °C78 %1006.8 hPa16.1 kmNNE (20°)20.4 km/h35.2 km/h0 mmThunderstormOvercast
4:53 PM23.3 °C19.4 °C79 %1006.4 hPa16.1 kmNorth (10°)14.8 km/h35.2 km/h0 mmThunderstormOvercast
5:02 PM24 °C19 °C73 %1007.1 hPa16.1 kmNorth (10°)16.7 km/h31.5 km/hThunderstormOvercast
5:16 PM24 °C19 °C73 %1007.1 hPa16.1 kmNorth (350°)13 km/h27.8 km/hOvercast
5:53 PM23.9 °C17.8 °C69 %1006.8 hPa16.1 kmNorth (350°)14.8 km/hOvercast
6:53 PM23.3 °C17.2 °C68 %1006.8 hPa16.1 kmNNW (340°)20.4 km/h29.6 km/hMostly Cloudy
7:53 PM22.8 °C16.1 °C66 %1007.1 hPa16.1 kmNNW (340°)18.5 km/hScattered Clouds
8:53 PM21.1 °C13.3 °C61 %1007.8 hPa16.1 kmNorth (350°)24.1 km/hPartly Cloudy
9:53 PM18.3 °C12.2 °C68 %1009.5 hPa16.1 kmNorth (350°)25.9 km/h37 km/hClear
10:53 PM16.1 °C11.1 °C72 %1011.2 hPa16.1 kmNorth (360°)16.7 km/h31.5 km/hClear
11:53 PM15 °C10 °C72 %1011.9 hPa16.1 kmNorth (350°)13 km/hClear
Hourly data recorded from KARB, located 0 kilometers away from Ann Arbor, Michigan







STORIES FROM OUR PARTNERS